SUNNYSIDE Weather Reports


time (UTC)temp
C
wind
direction
speed
KPH
gust
KPH
rain 1hr
cm
rain 24hr
cm
rain mn
cm
humidity
%
barometer
mb
20260507230537 12 341 8.0 19.3 0.00 0.00 0.00 27 978.2
20260507230042 12 360 8.0 14.5 0.00 0.00 0.00 25 978.2
20260507225538 12 45 4.8 11.3 0.00 0.00 0.00 25 978.3
20260507225037 12 65 6.4 12.9 0.00 0.00 0.00 25 978.2
20260507224554 12 5 4.8 12.9 0.00 0.00 0.00 25 978.1
20260507224036 12 64 6.4 14.5 0.00 0.00 0.00 25 978.2
20260507223536 12 325 4.8 19.3 0.00 0.00 0.00 26 978.2
20260507223036 12 329 11.3 19.3 0.00 0.00 0.00 26 978.2
20260507222536 12 38 4.8 19.3 0.00 0.00 0.00 25 978.2
20260507222035 12 333 8.0 19.3 0.00 0.00 0.00 25 978.4
20260507221534 12 15 6.4 17.7 0.00 0.00 0.00 26 978.2
20260507221033 12 11 9.7 17.7 0.00 0.00 0.00 27 978.3
20260507220537 12 334 8.0 19.3 0.00 0.00 0.00 25 978.4
20260507220033 12 53 6.4 16.1 0.00 0.00 0.00 25 978.3
20260507215533 11 82 6.4 16.1 0.00 0.00 0.00 25 978.4
20260507215030 11 49 8.0 19.3 0.00 0.00 0.00 24 978.4
20260507214531 12 355 11.3 20.9 0.00 0.00 0.00 25 978.4
20260507214029 12 286 8.0 17.7 0.00 0.00 0.00 23 978.5
20260507213531 12 246 6.4 12.9 0.00 0.00 0.00 24 978.6
20260507213028 12 17 4.8 12.9 0.00 0.00 0.00 25 978.6
20260507212526 11 219 1.6 12.9 0.00 0.00 0.00 25 978.7
20260507212026 11 326 4.8 14.5 0.00 0.00 0.00 26 978.8
20260507211525 11 331 4.8 19.3 0.00 0.00 0.00 26 978.9
20260507211023 11 230 3.2 24.1 0.00 0.00 0.00 24 978.9
20260507210525 11 284 12.9 24.1 0.00 0.00 0.00 26 979.0
20260507210022 11 325 9.7 20.9 0.00 0.00 0.00 27 979.1
20260507205522 11 322 6.4 24.1 0.00 0.00 0.00 25 979.0
20260507205022 11 360 8.0 24.1 0.00 0.00 0.00 24 979.1
20260507204523 11 301 8.0 24.1 0.00 0.00 0.00 24 979.1
20260507204021 11 309 12.9 24.1 0.00 0.00 0.00 24 979.1
20260507203522 11 344 12.9 24.1 0.00 0.00 0.00 23 979.2
20260507203019 11 248 6.4 20.9 0.00 0.00 0.00 23 979.3
20260507202519 11 332 8.0 20.9 0.00 0.00 0.00 25 979.4
20260507202018 11 21 1.6 20.9 0.00 0.00 0.00 27 979.3
20260507201520 10 314 8.0 16.1 0.00 0.00 0.00 27 979.4
20260507201018 10 254 4.8 16.1 0.00 0.00 0.00 25 979.5
20260507200518 11 208 1.6 12.9 0.00 0.00 0.00 25 979.4
20260507200017 11 340 0.0 16.1 0.00 0.00 0.00 25 979.6
20260507195516 11 360 6.4 19.3 0.00 0.00 0.00 27 979.7
20260507195017 10 268 12.9 19.3 0.00 0.00 0.00 27 979.5
20260507194514 10 355 6.4 19.3 0.00 0.00 0.00 27 979.6
20260507194013 10 273 12.9 19.3 0.00 0.00 0.00 25 979.7
20260507193513 10 5 4.8 14.5 0.00 0.00 0.00 27 979.7
20260507193013 10 51 3.2 20.9 0.00 0.00 0.00 25 979.7
20260507192512 10 322 9.7 20.9 0.00 0.00 0.00 27 979.8
20260507192016 10 55 4.8 17.7 0.00 0.00 0.00 26 979.7
20260507191511 10 255 8.0 19.3 0.00 0.00 0.00 26 979.8
20260507191011 10 335 12.9 19.3 0.00 0.00 0.00 27 979.9
20260507190511 10 221 8.0 22.5 0.00 0.00 0.00 26 979.9
20260507190013 10 298 11.3 22.5 0.00 0.00 0.00 26 979.9
20260507185510 10 283 12.9 19.3 0.00 0.00 0.00 27 979.9
20260507185009 10 279 9.7 17.7 0.00 0.00 0.00 28 980.0
20260507184513 10 312 9.7 17.7 0.00 0.00 0.00 28 979.9
20260507184007 10 273 4.8 24.1 0.00 0.00 0.00 30 980.0
20260507183507 9 355 8.0 25.7 0.00 0.00 0.00 27 980.0
20260507183008 9 295 16.1 25.7 0.00 0.00 0.00 26 980.0
20260507182507 9 296 11.3 20.9 0.00 0.00 0.00 29 980.1
20260507182006 9 297 12.9 20.9 0.00 0.00 0.00 26 980.4
20260507181506 9 294 6.4 19.3 0.00 0.00 0.00 27 980.2
20260507181005 9 286 12.9 22.5 0.00 0.00 0.00 29 980.3
20260507180504 9 290 14.5 22.5 0.00 0.00 0.00 28 980.3
20260507180007 9 340 8.0 19.3 0.00 0.00 0.00 29 980.3
20260507175505 9 23 8.0 19.3 0.00 0.00 0.00 29 980.4
20260507175001 8 15 6.4 17.7 0.00 0.00 0.00 29 980.5
20260507174601 9 308 9.7 17.7 0.00 0.00 0.00 29 980.6
20260507174059 8 250 9.7 16.1 0.00 0.00 0.00 30 980.7
20260507173558 8 261 9.7 14.5 0.00 0.00 0.00 31 980.7
20260507173100 8 333 1.6 11.3 0.00 0.00 0.00 32 980.7
20260507172556 8 64 0.0 11.3 0.00 0.00 0.00 30 980.7
20260507172054 8 65 1.6 8.0 0.00 0.00 0.00 30 980.7
20260507171556 7 128 1.6 19.3 0.00 0.00 0.00 32 981.0
20260507171052 7 297 9.7 19.3 0.00 0.00 0.00 31 981.1
20260507170551 7 211 4.8 11.3 0.00 0.00 0.00 33 981.0
20260507170050 7 262 1.6 14.5 0.00 0.00 0.00 32 981.1
20260507165548 7 290 8.0 17.7 0.00 0.00 0.00 33 981.2
20260507165050 7 296 4.8 20.9 0.00 0.00 0.00 31 981.3
20260507164547 7 270 11.3 20.9 0.00 0.00 0.00 32 981.2
20260507164044 7 311 6.4 12.9 0.00 0.00 0.00 35 981.2
20260507163545 7 234 4.8 16.1 0.00 0.00 0.00 33 981.4
20260507163041 6 350 6.4 16.1 0.00 0.00 0.00 34 981.3
20260507162540 6 38 4.8 9.7 0.00 0.00 0.00 33 981.3
20260507162038 6 17 3.2 8.0 0.00 0.00 0.00 35 981.4
20260507161539 6 27 3.2 12.9 0.00 0.00 0.00 34 981.4
20260507161035 6 15 1.6 12.9 0.00 0.00 0.00 34 981.6
20260507160535 6 247 6.4 8.0 0.00 0.00 0.00 35 981.4
20260507160037 6 153 1.6 8.0 0.00 0.00 0.00 36 981.5
20260507155532 6 178 4.8 8.0 0.00 0.00 0.00 36 981.7
20260507155031 6 195 1.6 8.0 0.00 0.00 0.00 39 981.5
20260507154530 6 236 3.2 8.0 0.00 0.00 0.00 37 981.5
20260507154028 6 227 3.2 6.4 0.00 0.00 0.00 37 981.5
20260507153526 6 325 1.6 9.7 0.00 0.00 0.00 36 981.6
20260507153032 6 90 1.6 9.7 0.00 0.00 0.00 37 981.5
20260507152524 5 64 1.6 8.0 0.00 0.00 0.00 37 981.6
20260507152023 5 296 1.6 9.7 0.00 0.00 0.00 38 981.6
20260507151521 5 296 0.0 4.8 0.00 0.00 0.00 41 981.7
20260507151021 5 296 1.6 8.0 0.00 0.00 0.00 39 981.7
20260507150520 5 288 3.2 8.0 0.00 0.00 0.00 39 981.7
20260507150020 5 49 1.6 6.4 0.00 0.00 0.00 40 981.8
20260507145518 5 90 0.0 6.4 0.00 0.00 0.00 42 981.7
20260507145016 4 344 1.6 8.0 0.00 0.00 0.00 43 981.9
20260507144515 4 19 3.2 8.0 0.00 0.00 0.00 42 982.1
20260507144015 4 336 1.6 4.8 0.00 0.00 0.00 43 982.1
20260507143513 4 40 3.2 4.8 0.00 0.00 0.00 43 982.1
20260507143012 3 99 0.0 6.4 0.00 0.00 0.00 44 982.0
20260507142512 3 318 1.6 6.4 0.00 0.00 0.00 43 982.0
20260507142010 3 33 0.0 4.8 0.00 0.00 0.00 45 982.1
20260507141509 3 33 0.0 4.8 0.00 0.00 0.00 46 982.0
20260507141008 2 36 0.0 6.4 0.00 0.00 0.00 47 982.1
20260507140506 2 34 3.2 6.4 0.00 0.00 0.00 46 982.1
20260507140006 2 295 3.2 6.4 0.00 0.00 0.00 46 982.1
20260507135505 2 305 1.6 4.8 0.00 0.00 0.00 48 982.2
20260507135004 2 301 1.6 4.8 0.00 0.00 0.00 47 982.2
20260507134504 2 275 3.2 4.8 0.00 0.00 0.00 47 982.2
20260507134003 2 276 0.0 4.8 0.00 0.00 0.00 48 982.1
20260507133505 2 276 1.6 4.8 0.00 0.00 0.00 47 982.1
20260507133003 2 11 0.0 1.6 0.00 0.00 0.00 43 982.2
20260507132503 1 11 0.0 1.6 0.00 0.00 0.00 44 982.2
20260507132101 1 11 0.0 1.6 0.00 0.00 0.00 44 982.3
20260507131603 1 11 0.0 3.2 0.00 0.00 0.00 45 982.3
20260507131058 1 11 0.0 4.8 0.00 0.00 0.00 46 982.4
20260507130557 0 11 0.0 4.8 0.00 0.00 0.00 47 982.4
20260507130055 0 11 0.0 4.8 0.00 0.00 0.00 47 982.4
20260507125554 0 11 0.0 4.8 0.00 0.00 0.00 48 982.5
20260507125053 0 11 0.0 4.8 0.00 0.00 0.00 49 982.5
20260507124551 -1 11 1.6 4.8 0.00 0.00 0.00 49 982.5
20260507124049 -1 11 1.6 4.8 0.00 0.00 0.00 50 982.4
20260507123549 -1 11 1.6 4.8 0.00 0.00 0.00 50 982.4
20260507123048 -1 11 3.2 4.8 0.00 0.00 0.00 51 982.4
20260507122546 -2 196 0.0 3.2 0.00 0.00 0.00 52 982.4
20260507122044 -2 196 1.6 3.2 0.00 0.00 0.00 52 982.4
20260507121543 -2 196 1.6 3.2 0.00 0.00 0.00 53 982.3
20260507121042 -2 196 0.0 0.0 0.00 0.00 0.00 54 982.3
20260507120541 -3 196 0.0 0.0 0.00 0.00 0.00 55 982.2
20260507120042 -3 196 0.0 0.0 0.00 0.00 0.00 55 982.2
20260507115542 -3 196 0.0 0.0 0.00 0.00 0.00 56 982.2
20260507115041 -3 196 0.0 0.0 0.00 0.00 0.00 56 982.0
20260507114542 -3 196 0.0 0.0 0.00 0.00 0.00 57 982.0
20260507114041 -4 194 0.0 0.0 0.00 0.00 0.00 58 982.1
20260507113542 -4 194 0.0 0.0 0.00 0.00 0.00 59 982.1
20260507113042 -5 194 0.0 0.0 0.00 0.00 0.00 58 982.1
20260507112541 -5 194 0.0 0.0 0.00 0.00 0.00 59 982.1
20260507112041 -5 194 0.0 0.0 0.00 0.00 0.00 58 982.1
20260507111544 -5 194 0.0 0.0 0.00 0.00 0.00 57 982.1
20260507111039 -5 194 0.0 0.0 0.00 0.00 0.00 57 982.2
20260507110540 -5 194 0.0 0.0 0.00 0.00 0.00 57 982.1
20260507110042 -5 194 0.0 0.0 0.00 0.00 0.00 58 982.1
20260507105538 -5 194 0.0 0.0 0.00 0.00 0.00 57 982.1
20260507105038 -5 194 0.0 0.0 0.00 0.00 0.00 58 982.1
20260507104537 -5 194 0.0 0.0 0.00 0.00 0.00 58 982.1
20260507104036 -4 194 0.0 0.0 0.00 0.00 0.00 57 982.2
20260507103537 -4 194 0.0 0.0 0.00 0.00 0.00 58 982.2
20260507103036 -4 194 0.0 0.0 0.00 0.00 0.00 57 982.2
20260507102536 -4 194 0.0 0.0 0.00 0.00 0.00 57 982.2
20260507102036 -4 194 0.0 0.0 0.00 0.00 0.00 57 982.2
20260507101555 -4 194 0.0 0.0 0.00 0.00 0.00 57 982.2
20260507101035 -4 194 0.0 0.0 0.00 0.00 0.00 57 982.2
20260507100535 -3 194 0.0 0.0 0.00 0.00 0.00 57 982.2
20260507100038 -4 194 0.0 0.0 0.00 0.00 0.00 57 982.2
20260507095535 -4 194 0.0 0.0 0.00 0.00 0.00 58 982.1
20260507095034 -4 194 0.0 0.0 0.00 0.00 0.00 58 982.2
20260507094535 -4 194 0.0 0.0 0.00 0.00 0.00 59 982.2
20260507094036 -4 194 0.0 0.0 0.00 0.00 0.00 58 982.3
20260507093535 -4 194 0.0 0.0 0.00 0.00 0.00 59 982.2
20260507093034 -4 194 0.0 0.0 0.00 0.00 0.00 58 982.4
20260507092534 -4 194 0.0 0.0 0.00 0.00 0.00 58 982.3
20260507092031 -4 194 0.0 0.0 0.00 0.00 0.00 57 982.4
20260507091550 -4 194 0.0 0.0 0.00 0.00 0.00 57 982.3
20260507091031 -3 194 0.0 0.0 0.00 0.00 0.00 57 982.3
20260507090533 -3 194 0.0 0.0 0.00 0.00 0.00 56 982.3
20260507090031 -3 194 0.0 4.8 0.00 0.00 0.00 56 982.3
20260507085532 -3 194 1.6 4.8 0.00 0.00 0.00 55 982.3
20260507085031 -3 198 1.6 4.8 0.00 0.00 0.00 54 982.3
20260507084529 -3 197 3.2 6.4 0.00 0.00 0.00 54 982.4
20260507084030 -3 198 1.6 6.4 0.00 0.00 0.00 54 982.4
20260507083530 -3 195 1.6 4.8 0.00 0.00 0.00 54 982.3
20260507083030 -2 197 1.6 8.0 0.00 0.00 0.00 54 982.4
20260507082530 -2 204 0.0 9.7 0.00 0.00 0.00 54 982.3
20260507082028 -3 166 1.6 9.7 0.00 0.00 0.00 54 982.3
20260507081540 -3 183 0.0 8.0 0.00 0.00 0.00 54 982.3
20260507081028 -3 167 0.0 8.0 0.00 0.00 0.00 54 982.3
20260507080527 -3 113 1.6 4.8 0.00 0.00 0.00 54 982.4
20260507080027 -3 200 0.0 4.8 0.00 0.00 0.00 54 982.5
20260507075527 -3 215 0.0 4.8 0.00 0.00 0.00 54 982.4
20260507075026 -3 188 0.0 3.2 0.00 0.00 0.00 54 982.4
20260507074530 -3 165 0.0 4.8 0.00 0.00 0.00 54 982.5
20260507074025 -3 180 0.0 3.2 0.00 0.00 0.00 54 982.4
20260507073525 -3 209 0.0 4.8 0.00 0.00 0.00 54 982.4
20260507073025 -3 167 1.6 4.8 0.00 0.00 0.00 55 982.5
20260507072525 -3 169 0.0 3.2 0.00 0.00 0.00 55 982.4
20260507072024 -3 144 0.0 4.8 0.00 0.00 0.00 55 982.5
20260507071523 -3 145 0.0 1.6 0.00 0.00 0.00 55 982.5
20260507071023 -3 194 0.0 4.8 0.00 0.00 0.00 56 982.6
20260507070522 -3 194 1.6 4.8 0.00 0.00 0.00 56 982.6
20260507070023 -3 189 1.6 4.8 0.00 0.00 0.00 57 982.7
20260507065521 -3 196 1.6 4.8 0.00 0.00 0.00 58 982.6
20260507065021 -3 183 0.0 4.8 0.00 0.00 0.00 58 982.8
20260507064523 -4 132 0.0 0.0 0.00 0.00 0.00 58 982.7
20260507064020 -4 132 0.0 0.0 0.00 0.00 0.00 58 982.8
20260507063521 -4 132 0.0 4.8 0.00 0.00 0.00 58 982.9
20260507063019 -4 132 0.0 4.8 0.00 0.00 0.00 58 982.8
20260507062520 -4 132 0.0 1.6 0.00 0.00 0.00 58 982.9
20260507062019 -4 132 0.0 1.6 0.00 0.00 0.00 58 982.9
20260507061529 -3 132 0.0 1.6 0.00 0.00 0.00 58 982.9
20260507061017 -3 132 0.0 3.2 0.00 0.00 0.00 58 982.9
20260507060517 -3 132 0.0 3.2 0.00 0.00 0.00 57 982.9
20260507060027 -3 132 0.0 3.2 0.00 0.00 0.00 56 982.9
20260507055517 -3 132 0.0 3.2 0.00 0.00 0.00 56 982.9
20260507055019 -3 132 0.0 4.8 0.00 0.00 0.00 56 982.9
20260507054517 -3 132 1.6 4.8 0.00 0.00 0.00 57 982.9
20260507054017 -3 164 0.0 4.8 0.00 0.00 0.00 57 983.0
20260507053517 -3 150 1.6 8.0 0.00 0.00 0.00 57 983.0
20260507053017 -3 166 1.6 8.0 0.00 0.00 0.00 58 983.0
20260507052516 -3 101 1.6 4.8 0.00 0.00 0.00 57 983.0
20260507052015 -3 101 1.6 4.8 0.00 0.00 0.00 56 983.0
20260507051515 -3 101 3.2 4.8 0.00 0.00 0.00 56 983.0
20260507051013 -3 101 1.6 4.8 0.00 0.00 0.00 57 983.0
20260507050512 -3 101 1.6 4.8 0.00 0.00 0.00 57 983.1
20260507050024 -3 101 1.6 4.8 0.00 0.00 0.00 56 983.0
20260507045510 -3 101 3.2 6.4 0.00 0.00 0.00 55 983.1
20260507045009 -2 101 3.2 6.4 0.00 0.00 0.00 56 983.2
20260507044523 -2 96 3.2 6.4 0.00 0.00 0.00 56 983.2
20260507044014 -2 91 4.8 9.7 0.00 0.00 0.00 56 983.1
20260507043507 -2 92 4.8 9.7 0.00 0.00 0.00 56 983.2
20260507043007 -2 93 4.8 6.4 0.00 0.00 0.00 56 983.2
20260507042507 -2 94 4.8 9.7 0.00 0.00 0.00 56 983.3
20260507042006 -2 86 4.8 9.7 0.00 0.00 0.00 55 983.2
20260507041505 -2 86 4.8 9.7 0.00 0.00 0.00 56 983.2
20260507041004 -2 86 4.8 9.7 0.00 0.00 0.00 55 983.3
20260507040503 -2 96 4.8 9.7 0.00 0.00 0.00 55 983.3
20260507040002 -2 96 4.8 9.7 0.00 0.00 0.00 55 983.3
20260507035501 -1 92 4.8 6.4 0.00 0.00 0.00 54 983.3
20260507035101 -1 96 3.2 9.7 0.00 0.00 0.00 53 983.4
20260507034605 -1 96 3.2 11.3 0.00 0.00 0.00 54 983.4
20260507034059 -1 90 6.4 11.3 0.00 0.00 0.00 54 983.4
20260507033559 -1 89 6.4 9.7 0.00 0.00 0.00 54 983.4
20260507033059 -1 82 6.4 11.3 0.00 0.00 0.00 54 983.4
20260507032557 -1 78 4.8 11.3 0.00 0.00 0.00 53 983.4
20260507032057 -1 88 4.8 9.7 0.00 0.00 0.00 53 983.4
20260507031556 0 78 4.8 8.0 0.00 0.00 0.00 53 983.5
20260507031100 0 76 4.8 11.3 0.00 0.00 0.00 52 983.5
20260507030557 0 86 4.8 11.3 0.00 0.00 0.00 52 983.6
20260507030106 0 86 6.4 12.9 0.00 0.00 0.00 51 983.6
20260507025556 0 88 6.4 14.5 0.00 0.00 0.00 51 983.5
20260507025056 0 74 8.0 14.5 0.00 0.00 0.00 50 983.5
20260507024607 0 79 6.4 12.9 0.00 0.00 0.00 50 983.5
20260507024100 1 78 8.0 12.9 0.00 0.00 0.00 49 983.6
20260507023559 1 82 6.4 14.5 0.00 0.00 0.00 47 983.6
20260507023056 2 74 8.0 17.7 0.00 0.00 0.00 45 983.6
20260507022556 2 69 9.7 17.7 0.00 0.00 0.00 42 983.6
20260507022056 2 19 0.0 3.2 0.00 0.00 0.00 37 983.5
20260507021615 2 19 0.0 1.6 0.00 0.00 0.00 37 983.4
20260507021055 3 19 0.0 3.2 0.00 0.00 0.00 36 983.3
20260507020555 3 19 0.0 3.2 0.00 0.00 0.00 36 983.3
20260507020104 3 19 0.0 4.8 0.00 0.00 0.00 36 983.3
20260507015555 3 20 1.6 4.8 0.00 0.00 0.00 35 983.4
20260507015058 3 5 0.0 8.0 0.00 0.00 0.00 34 983.2
20260507014612 4 11 3.2 9.7 0.00 0.00 0.00 34 983.0
20260507014054 4 24 3.2 9.7 0.00 0.00 0.00 33 983.1
20260507013553 4 350 3.2 8.0 0.00 0.00 0.00 33 983.1
20260507013056 4 37 1.6 12.9 0.00 0.00 0.00 32 983.2
20260507012558 5 19 3.2 12.9 0.00 0.00 0.00 32 983.2
20260507012054 5 44 3.2 12.9 0.00 0.00 0.00 32 983.3
20260507011553 5 29 3.2 14.5 0.00 0.00 0.00 32 983.3
20260507011055 5 40 3.2 14.5 0.00 0.00 0.00 32 983.2
20260507010557 5 26 3.2 17.7 0.00 0.00 0.00 32 983.1
20260507010107 5 360 6.4 17.7 0.00 0.00 0.00 32 983.1
20260507005553 5 28 4.8 14.5 0.00 0.00 0.00 32 983.2
20260507005052 5 22 4.8 14.5 0.00 0.00 0.00 33 983.1
20260507004552 5 10 6.4 17.7 0.00 0.00 0.00 32 983.1
20260507004051 5 355 8.0 17.7 0.00 0.00 0.00 33 983.1
20260507003551 5 355 4.8 16.1 0.00 0.00 0.00 34 983.2
20260507003051 5 342 6.4 16.1 0.00 0.00 0.00 34 983.1
20260507002550 5 21 8.0 16.1 0.00 0.00 0.00 34 983.2
20260507002050 5 355 4.8 16.1 0.00 0.00 0.00 35 983.3
20260507001552 6 38 6.4 16.1 0.00 0.00 0.00 34 983.3
20260507001048 6 5 8.0 17.7 0.00 0.00 0.00 34 983.4
20260507000547 6 5 6.4 17.7 0.00 0.00 0.00 35 983.4
20260507000048 6 26 6.4 17.7 0.00 0.00 0.00 34 983.5
20260506235549 6 355 4.8 17.7 0.00 0.00 0.00 34 983.5
20260506235047 6 350 6.4 19.3 0.00 0.00 0.00 35 983.5
20260506234548 6 20 6.4 19.3 0.00 0.00 0.00 35 983.5
20260506234047 6 5 8.0 19.3 0.00 0.00 0.00 35 983.4
20260506233548 6 23 6.4 19.3 0.00 0.00 0.00 35 983.5
20260506233052 6 32 9.7 19.3 0.00 0.00 0.00 35 983.5
20260506232547 6 325 6.4 22.5 0.00 0.00 0.00 36 983.6
20260506232046 6 355 11.3 22.5 0.00 0.00 0.00 35 983.6
20260506231546 6 355 9.7 17.7 0.00 0.00 0.00 36 983.7
20260506231048 6 336 11.3 20.9 0.00 0.00 0.00 36 983.6